Regional Weather Roundup
Issued by NWS

Home | Current Version | Previous Version | Graphics & Text | Print | Product List | Glossary On
Versions: 1 2 3 4 5 6 7 8 9 10 11 12 13 14 15 16 17 18 19 20 21 22 23 24 25 26 27 28 29 30 31 32 33 34 35 36 37 38 39 40 41 42 43 44 45 46 47 48 49 50
000
ASUS43 KDTX 060601
RWRMI
MICHIGAN HOURLY REGIONAL WEATHER ROUNDUP
NATIONAL WEATHER SERVICE DETROIT/PONTIAC MI
100 AM EST SAT FEB 06 2016

NOTE: "FAIR" INDICATES FEW OR NO CLOUDS BELOW 12,000 FEET WITH NO
SIGNIFICANT WEATHER AND/OR OBSTRUCTION TO VISIBILITY.

MIZ047>049-052>055-059>063-066>070-074>076-081>083-060700-
SOUTHEAST LOWER MICHIGAN

CITY           SKY/WX    TMP DP  RH WIND       PRES   REMARKS
ADRIAN         PTCLDY    36  23  59 W9        30.29S WCI  29
6HR MIN TEMP:  35; 6HR MAX TEMP:  42;

ALMA           CLOUDY    26  20  77 W7        30.27S WCI  19
6HR MIN TEMP:  26; 6HR MAX TEMP:  31;

ANN ARBOR      PTCLDY    27  20  75 NW10      30.27R WCI  17
BAD AXE        CLOUDY    29  28  93 W5        30.22F WCI  24
CARO           CLOUDY    28  25  87 W6        30.23R WCI  22
DETROIT CITY   CLOUDY    32  25  75 W9        30.25S WCI  24
6HR MIN TEMP:  32; 6HR MAX TEMP:  36;

DETROIT        CLOUDY    32  25  75 W7        30.27S WCI  26
6HR MIN TEMP:  32; 6HR MAX TEMP:  36;

FLINT          CLOUDY    30  20  66 W9        30.26R WCI  22
6HR MIN TEMP:  30; 6HR MAX TEMP:  34; 6HR PCP: TRACE;

GROSSE ILE     CLOUDY    32  27  80 W5        30.25F WCI  27
HILLSDALE      CLEAR     24  22  89 W5        30.26F WCI  19
6HR MIN TEMP:  24; 6HR MAX TEMP:  30;

HOWELL         MOCLDY    26  22  84 W7        30.26S WCI  19
6HR MIN TEMP:  26; 6HR MAX TEMP:  32;


CITY           SKY/WX    TMP DP  RH WIND       PRES   REMARKS
JACKSON        CLEAR     25  18  74 W5        30.27S WCI  19
6HR MIN TEMP:  25; 6HR MAX TEMP:  31;

LAMBERTVILLE   MOCLDY    30  27  86 W8        30.29R WCI  23
6HR MIN TEMP:  30; 6HR MAX TEMP:  35;

LANSING        PTCLDY    25  17  72 W6        30.27F WCI  18
6HR MIN TEMP:  25; 6HR MAX TEMP:  30;

LAPEER         CLOUDY    30  27  89 W8        30.23S WCI  22
6HR MIN TEMP:  30; 6HR MAX TEMP:  33;

MASON          MOCLDY    25  19  79 W3        30.27S
MONROE         CLOUDY    32  27  83 W6        30.27S WCI  26
6HR MIN TEMP:  30; 6HR MAX TEMP:  37;

MT. CLEMENS    CLOUDY    32  28  82 W8        30.23S WCI  25
6HR MIN TEMP:  31; 6HR MAX TEMP:  34;

PONTIAC        CLOUDY    29  24  82 W10       30.23S WCI  20
6HR MIN TEMP:  28; 6HR MAX TEMP:  33; 6HR PCP: TRACE;

PORT HOPE        N/A     28  26  92 CALM      30.20F
6HR MIN TEMP:  28; 6HR MAX TEMP:  30;

PORT HURON     CLOUDY    30  28  93 CALM      30.23F
TRI CITIES     CLOUDY    28  20  71 W8        30.25S WCI  20
6HR MIN TEMP:  28; 6HR MAX TEMP:  31;

MIDLAND        CLOUDY    27  19  70 W5        30.25S WCI  22
6HR MIN TEMP:  27; 6HR MAX TEMP:  30;

TROY           CLOUDY    33  28  84 W5        30.26S WCI  28
SAGINAW HB     CLOUDY    30  23  74 W8        30.25S WCI  23
$$
MIZ043>046-050>051-056>058-064>065-071>073-077>080-060700-
SOUTHWEST LOWER MICHIGAN

CITY           SKY/WX    TMP DP  RH WIND       PRES   REMARKS
BATTLE CREEK   MOCLDY    24  19  81 SW5       30.28F WCI  18
6HR MIN TEMP:  23; 6HR MAX TEMP:  30;

BENTON HARBOR  CLEAR     26  21  81 S6        30.30S WCI  19
6HR MIN TEMP:  26; 6HR MAX TEMP:  30;

BIG RAPIDS     CLOUDY    23  19  83 CALM      30.23F
6HR MIN TEMP:  23; 6HR MAX TEMP:  27;

COLDWATER      CLEAR     21  19  93 CALM      30.28F
FREMONT        CLOUDY    22  17  80 CALM      30.25F
HOLLAND        CLEAR     22  18  85 CALM      30.28F
6HR MIN TEMP:  22; 6HR MAX TEMP:  29;

GRAND RAPIDS   CLEAR     24  18  77 W3        30.27F
6HR MIN TEMP:  24; 6HR MAX TEMP:  28;

IONIA          MOCLDY    22  17  80 W5        30.26F WCI  16
6HR MIN TEMP:  22; 6HR MAX TEMP:  29;

KALAMAZOO      CLEAR     24  19  81 SW6       30.28F WCI  17
6HR MIN TEMP:  24; 6HR MAX TEMP:  30;

LUDINGTON      PTCLDY    19  17  91 CALM      30.24F
6HR MIN TEMP:  19; 6HR MAX TEMP:  27;

MARSHALL       MOCLDY    24  19  83 CALM      30.27F
6HR MIN TEMP:  22; 6HR MAX TEMP:  31;

MOUNT PLEASANT CLOUDY    26  17  68 W5        30.25S WCI  21
6HR MIN TEMP:  26; 6HR MAX TEMP:  31;

MUSKEGON       PTCLDY    25  17  72 SE5       30.28F WCI  19
6HR MIN TEMP:  24; 6HR MAX TEMP:  29;

SOUTH HAVEN    CLEAR     25  22  88 S5        30.29S WCI  19
$$
MIZ016>042-060700-
NORTHERN LOWER MICHIGAN

CITY           SKY/WX    TMP DP  RH WIND       PRES   REMARKS
ALPENA         CLOUDY    17  14  88 CALM      30.20F
6HR MIN TEMP:  13; 6HR MAX TEMP:  21;

BEAVER ISLAND  CLOUDY    30  20  67 SW13G18   30.15F WCI  20
6HR MIN TEMP:  25; 6HR MAX TEMP:  30;

BELLAIRE       CLOUDY    23  17  77 SW5       30.21F WCI  17
6HR MIN TEMP:  17; 6HR MAX TEMP:  25;

CADILLAC       CLOUDY    18  14  85 SW5       30.18F WCI  11
CHARLEVOIX     CLOUDY    26  19  74 SW10G16   30.20F WCI  17
FRANKFORT      CLOUDY    30  22  70 SW8       30.20F WCI  22
GAYLORD        MOCLDY    20  15  81 SW9       30.15F WCI   9
6HR MIN TEMP:  16; 6HR MAX TEMP:  22;

GRAYLING       CLOUDY    19  15  84 CALM      30.18F
6HR MIN TEMP:  13; 6HR MAX TEMP:  19;

HARBOR SPRINGS CLOUDY    25  18  75 SW8       30.17F WCI  16
HOUGHTON LAKE  CLOUDY    19  14  81 SW5       30.19F WCI  12
6HR MIN TEMP:  18; 6HR MAX TEMP:  23;

MANISTEE       CLOUDY    23  16  74 CALM      30.24S
OSCODA         MOCLDY    23  20  88 SW3       30.22S
6HR MIN TEMP:  23; 6HR MAX TEMP:  29;

PELLSTON       MOCLDY    24  16  71 VRB6      30.17F WCI  17
6HR MIN TEMP:   8; 6HR MAX TEMP:  24;

ROGERS CITY    CLOUDY    22  15  75 SW7       30.18F WCI  13
TRAVERSE CITY  CLOUDY    24  16  71 S3        30.19F
6HR MIN TEMP:  20; 6HR MAX TEMP:  27;

$$
MIZ007>008-015-060700-
EASTERN UPPER MICHIGAN

CITY           SKY/WX    TMP DP  RH WIND       PRES   REMARKS
KINROSS        CLOUDY    21  19  93 S5        30.12F WCI  15
6HR MIN TEMP:  18; 6HR MAX TEMP:  23;

MACKINAC ISLAN PTCLDY    24  19  81 SW9       30.15F WCI  15
6HR MIN TEMP:  19; 6HR MAX TEMP:  25;

NEWBERRY       CLOUDY    23  18  80 SW9       30.11S WCI  13
6HR MIN TEMP:  12; 6HR MAX TEMP:  24;

S. S. MARIE    LGT SNOW  20  14  77 CALM      30.12F
6HR MIN TEMP:  20; 6HR MAX TEMP:  25; 6HR PCP: TRACE;

$$
MIZ004>006-011>014-085-060700-
CENTRAL UPPER MICHIGAN

CITY           SKY/WX    TMP DP  RH WIND       PRES   REMARKS
MANISTIQUE     CLOUDY    26  18  72 SW9       30.13F WCI  17
6HR MIN TEMP:  23; 6HR MAX TEMP:  27;

ESCANABA       CLOUDY    25  18  74 SW8       30.14F WCI  16
6HR MIN TEMP:  25; 6HR MAX TEMP:  27;

MENOMINEE      CLOUDY    21  16  79 SW8       30.17F WCI  12
6HR MIN TEMP:  19; 6HR MAX TEMP:  21;

SAWYER-GWINN   CLOUDY    23  12  62 SW14      30.05F WCI  11
6HR MIN TEMP:  22; 6HR MAX TEMP:  23;

$$
MIZ001>003-009>011-084-060700-
WESTERN UPPER MICHIGAN

CITY           SKY/WX    TMP DP  RH WIND       PRES   REMARKS
IRON MOUNTAIN  CLOUDY    25  10  53 SW9G17    30.08F WCI  15
6HR MIN TEMP:  24; 6HR MAX TEMP:  26;

HOUGHTON       CLOUDY    26  17  68 W20G25    30.01F WCI  12
6HR MIN TEMP:  22; 6HR MAX TEMP:  27; 6HR PCP: TRACE;

COPPER HARBOR    N/A     26  21  81 VRB6      30.00F WCI  19
6HR MIN TEMP:  23; 6HR MAX TEMP:  28;

IRONWOOD       CLOUDY    21  16  79 SW14      30.05F WCI   8
6HR MIN TEMP:  21; 6HR MAX TEMP:  27;

$$

ABBREVIATIONS USED IN REMARKS
   TC - TEMPERATURE IN CELSIUS
  WCI - WIND CHILL INDEX
   HX - HEAT INDEX
  VSB - VISIBILITY




USA.gov is the U.S. government's official web portal to all federal, state and local government web resources and services.